Location: Monroe
(41.9160°N, 83.3980°W)
Time: 08:33:21
(UTC-04:00)

ISS - All Passes

Search period start: 30 May 2016 00:00
Search period end: 09 June 2016 00:00
Orbit: 402 x 404 km, 51.6° (Epoch: 30 May)

Date Brightness Start Highest point End Pass type
(mag) Time Alt. Az. Time Alt. Az. Time Alt. Az.
30 May - 01:18:46 10° NNW 01:20:50 15° N 01:22:53 10° NE visible
30 May - 02:54:57 10° NW 02:57:59 34° NNE 03:01:01 10° E visible
30 May - 04:31:27 10° WNW 04:34:24 32° SW 04:37:19 10° SSE visible
30 May - 21:10:36 10° SW 21:13:49 61° SE 21:17:03 10° ENE daylight
30 May - 22:47:43 10° WNW 22:50:29 24° NNW 22:53:14 10° NE visible
31 May - 00:25:48 10° NW 00:27:46 15° N 00:29:44 10° NE visible
31 May - 02:02:19 10° NW 02:05:04 24° NNE 02:07:48 10° ENE visible
31 May - 03:38:30 10° WNW 03:41:44 63° SW 03:44:57 10° SE visible
31 May - 20:18:14 10° SSW 20:21:09 31° SE 20:24:05 10° ENE daylight
31 May - 21:54:31 10° W 21:57:33 35° NNW 22:00:37 10° NE visible
31 May - 23:32:38 10° NW 23:34:42 16° N 23:36:47 10° NNE visible
01 Jun - 01:09:39 10° NNW 01:12:04 19° NNE 01:14:29 10° ENE visible
01 Jun - 02:45:43 10° NW 02:48:58 68° NNE 02:52:13 10° ESE visible
01 Jun - 04:23:15 10° W 04:25:03 14° SW 04:26:50 10° SSW night (unlit)
01 Jun - 19:26:25 10° S 19:28:33 16° SE 19:30:43 10° E daylight
01 Jun - 21:01:29 10° WSW 21:04:42 59° NNW 21:07:56 10° NE daylight
01 Jun - 22:39:19 10° WNW 22:41:39 18° NNW 22:44:00 10° NNE visible
02 Jun - 00:16:54 10° NNW 00:19:02 16° N 00:21:09 10° NE visible
02 Jun - 01:53:01 10° NW 01:56:08 39° NNE 01:59:14 10° E visible
02 Jun - 03:29:41 10° WNW 03:32:28 26° SW 03:35:15 10° SSE night (unlit)
02 Jun - 20:08:40 10° SW 20:11:55 75° SE 20:15:11 10° ENE daylight
02 Jun - 21:45:59 10° WNW 21:48:39 22° NNW 21:51:19 10° NE visible
02 Jun - 23:23:59 10° NW 23:25:58 15° N 23:27:56 10° NE visible
03 Jun - 01:00:23 10° NW 01:03:14 26° NNE 01:06:03 10° E visible
03 Jun - 02:36:38 10° WNW 02:39:49 51° SW 02:42:59 10° SE visible
03 Jun - 19:16:10 10° SSW 19:19:13 37° SE 19:22:16 10° ENE daylight
03 Jun - 20:52:43 10° W 20:55:41 31° NNW 20:58:40 10° NE daylight
03 Jun - 22:30:51 10° NW 22:32:53 15° N 22:34:54 10° NNE visible
04 Jun - 00:07:43 10° NW 00:10:14 20° NNE 00:12:44 10° ENE visible
04 Jun - 01:43:48 10° NW 01:47:04 82° NE 01:50:19 10° ESE visible
04 Jun - 03:21:53 10° WSW 03:23:03 12° SW 03:24:13 10° SSW night (unlit)
04 Jun - 18:24:08 10° S 18:26:35 20° SE 18:29:02 10° E daylight
04 Jun - 19:59:37 10° WSW 20:02:47 50° NNW 20:06:00 10° NE daylight
04 Jun - 21:37:34 10° NW 21:39:49 17° N 21:42:04 10° NNE visible
04 Jun - 23:14:59 10° NNW 23:17:11 17° N 23:19:23 10° NE visible
05 Jun - 00:51:04 10° NW 00:54:14 45° NNE 00:57:24 10° ESE visible
05 Jun - 02:27:54 10° W 02:30:30 22° SW 02:33:04 10° S visible
05 Jun - 17:33:29 10° SE 17:34:02 10° SE 17:34:34 10° ESE daylight
05 Jun - 19:06:43 10° SW 19:09:58 90° SE 19:13:15 10° NE daylight
05 Jun - 20:44:12 10° WNW 20:46:46 21° NNW 20:49:21 10° NE daylight
05 Jun - 22:22:06 10° NW 22:24:07 15° N 22:26:07 10° NE visible
05 Jun - 23:58:24 10° NW 00:01:20 29° NNE 00:04:15 10° E visible
06 Jun - 01:34:44 10° WNW 01:37:50 41° SW 01:40:56 10° SSE visible
06 Jun - 18:14:06 10° SSW 18:17:13 45° SE 18:20:23 10° ENE daylight
06 Jun - 19:50:53 10° W 19:53:46 28° NNW 19:56:40 10° NE daylight
06 Jun - 21:29:01 10° NW 21:31:01 15° N 21:33:00 10° NE daylight
06 Jun - 23:05:44 10° NW 23:08:21 21° NNE 23:10:57 10° ENE visible
07 Jun - 00:41:50 10° WNW 00:45:07 83° SW 00:48:22 10° SE visible
07 Jun - 17:21:52 10° S 17:24:34 24° SE 17:27:16 10° E daylight
07 Jun - 18:57:43 10° WSW 19:00:51 43° NNW 19:04:00 10° NE daylight
07 Jun - 20:35:45 10° NW 20:37:56 16° N 20:40:06 10° NNE daylight
07 Jun - 22:13:01 10° NNW 22:15:18 17° NNE 22:17:35 10° NE visible
07 Jun - 23:49:05 10° NW 23:52:18 53° NNE 23:55:30 10° ESE visible
08 Jun - 01:26:09 10° W 01:28:28 18° SW 01:30:46 10° S visible
08 Jun - 16:30:28 10° SSE 16:31:58 13° SE 16:33:29 10° ESE daylight
08 Jun - 18:04:44 10° WSW 18:08:00 76° NNW 18:11:16 10° NE daylight
08 Jun - 19:42:23 10° WNW 19:44:51 19° NNW 19:47:20 10° NE daylight
08 Jun - 21:20:10 10° NNW 21:22:13 15° N 21:24:16 10° NE daylight
08 Jun - 22:56:23 10° NW 22:59:24 33° NNE 23:02:23 10° E visible
